Oak Ridge, TN

7:55 PM EST on November 21, 2019 (GMT -0500)
Oak Ridge

Weather History for KOQT - September, 2019

Change the Weather History Date:

Sunday, September 8, 2019

  Actual Average (WUND) Record (WUND)
Temperature  
Mean Temperature 76 °F -  
Max Temperature 90 °F - - (-1)
Min Temperature 63 °F - - (-1)
Cooling Degree Days 12    
Growing Degree Days 26 (Base 50)    
Moisture  
Dew Point 61 °F    
Average Humidity 65    
Maximum Humidity 90    
Minimum Humidity 33    
Precipitation  
Precipitation 0.00 in - - ()
Sea Level Pressure  
Sea Level Pressure 30.02 in    
Wind  
Wind Speed 1 mph ()    
Max Wind Speed 5 mph    
Max Gust Speed -    
Visibility 10.0 miles    
Events      
Averages and records for this station are not official NWS values.
T = Trace of Precipitation, MM = Missing Value Source: Averaged Metar Reports

Daily Weather History Graph

Daily Weather History Graph

Search for Another Location

Airport or City:

Astronomy

Sep. 08, 2019 Rise Set
Actual Time 7:13 AM EDT 7:54 PM EDT
Civil Twilight 6:47 AM EDT 8:20 PM EDT
Nautical Twilight 6:17 AM EDT 8:51 PM EDT
Astronomical Twilight 5:45 AM EDT 9:22 PM EDT
Moon 4:53 PM EDT (9/8) 2:01 AM EDT (9/8)
Length of Visible Light 13h 32m
Length of Day
12h 40m
Waxing Gibbous, 75% of the Moon is Illuminated
Sep 8
Waxing Gibbous
Sep 14
Full
Sep 21
Last Quarter
Sep 28
New
Oct 5
First Quarter

Hourly Weather History & Observations

Time (EDT) Temp. Heat Index Dew Point Humidity Pressure Visibility Wind Dir Wind Speed Gust Speed Precip Events Conditions
12:53 AM 68.0 °F - 62.1 °F 81% 29.99 in 10.0 mi Calm Calm - N/A   Clear
1:53 AM 66.9 °F - 61.0 °F 81% 30.00 in 10.0 mi Calm Calm - N/A   Clear
2:53 AM 66.0 °F - 61.0 °F 84% 29.99 in 10.0 mi Calm Calm - N/A   Clear
3:53 AM 64.9 °F - 60.1 °F 84% 29.98 in 10.0 mi Calm Calm - N/A   Clear
4:53 AM 64.9 °F - 60.1 °F 84% 29.97 in 10.0 mi Calm Calm - N/A   Clear
5:53 AM 63.0 °F - 60.1 °F 90% 29.98 in 10.0 mi Calm Calm - N/A   Clear
6:53 AM 63.0 °F - 59.0 °F 87% 30.01 in 10.0 mi Calm Calm - N/A   Clear
7:53 AM 64.0 °F - 59.0 °F 84% 30.04 in 10.0 mi Calm Calm - N/A   Clear
8:53 AM 66.9 °F - 61.0 °F 81% 30.06 in 10.0 mi Calm Calm - N/A   Clear
10:53 AM 77.0 °F - 62.1 °F 60% 30.04 in 10.0 mi Variable 3.5 mph - N/A   Clear
11:53 AM 81.0 °F 81.9 °F 62.1 °F 52% 30.04 in 10.0 mi Calm Calm - N/A   Clear
12:53 PM 82.0 °F 82.7 °F 61.0 °F 49% 30.05 in 10.0 mi Calm Calm - N/A   Clear
1:53 PM 84.9 °F 84.4 °F 59.0 °F 41% 30.04 in 10.0 mi SSE 4.6 mph - N/A   Clear
3:53 PM 89.1 °F 87.7 °F 57.0 °F 34% 30.02 in 10.0 mi Variable 4.6 mph - N/A   Clear
4:53 PM 89.1 °F 87.7 °F 57.0 °F 34% 30.00 in 10.0 mi Calm Calm - N/A   Clear
5:53 PM 90.0 °F 88.6 °F 57.0 °F 33% 30.00 in 10.0 mi Variable 3.5 mph - N/A   Clear
6:53 PM 87.1 °F 86.5 °F 59.0 °F 39% 30.01 in 10.0 mi SSE 4.6 mph - N/A   Clear
7:53 PM 82.9 °F 83.2 °F 60.1 °F 46% 30.01 in 10.0 mi Calm Calm - N/A   Clear
8:53 PM 78.1 °F - 64.0 °F 62% 30.02 in 10.0 mi Calm Calm - N/A   Clear
9:53 PM 75.0 °F - 64.0 °F 69% 30.06 in 10.0 mi Calm Calm - N/A   Clear
10:53 PM 72.0 °F - 64.0 °F 76% 30.06 in 10.0 mi Calm Calm - N/A   Clear
11:53 PM 71.1 °F - 64.0 °F 78% 30.07 in 10.0 mi Calm Calm - N/A   Clear